Oriana — ZCDU9 — position and weather

sailwx.info

Track history (hours):
 
Tides and Currents Weather Stations Pressure Air Temp Water Temp Dewpoint Dewpoint Depression Visibility Wind Speed Wind Dir Waves Ship Positions

Oriana (Bermuda)

Last reported at 2014-Jul-28 23:33 UTC. Time now 2014-Jul-29 00:31 UTC.
Position N 38°07' W 013°07'.

Length 261 m; beam 32.2 m; draft 8.2 m.

Type: Ship. MMSI: 310529000.

Date/timePositionNaut miles runAvg speedWind from/ knotsBaromVisibWave heightAir tempDewpointWater temp
2014-Jul-28 23:33N 38°07' W 013°07'1312.5
2014-Jul-28 22:31N 38°18' W 012°60'1212.4
2014-Jul-28 21:31N 38°30' W 012°53'1312.5
2014-Jul-28 20:30N 38°41' W 012°46'1212.3
2014-Jul-28 19:33N 38°52' W 012°39'376 9.1
2014-Jul-27 02:14N 44°08' W 008°07'1015.2
2014-Jul-27 01:34N 44°17' W 008°01'1615.3
2014-Jul-27 00:31N 44°32' W 007°54'1515.3
2014-Jul-26 23:32N 44°46' W 007°46'1515.8
2014-Jul-26 22:33N 44°60' W 007°36'1615.8
2014-Jul-26 21:34N 45°14' W 007°28'1616.4
2014-Jul-26 20:34N 45°29' W 007°19'1616.1
2014-Jul-26 19:33N 45°44' W 007°10'3415.8
2014-Jul-26 17:25N 46°16' W 006°51'1315.5
2014-Jul-26 16:33N 46°28' W 006°44'1815.3
2014-Jul-26 15:24N 46°44' W 006°34'3415.3
2014-Jul-26 13:10N 47°16' W 006°14'915.3
2014-Jul-26 12:34N 47°24' W 006°09'1515.1
2014-Jul-26 11:33N 47°38' W 006°00'1515.4
2014-Jul-26 10:33N 47°52' W 005°51'1616.2
2014-Jul-26 09:33N 48°07' W 005°41'1716.8
2014-Jul-26 08:33N 48°23' W 005°32'1716.8
2014-Jul-26 07:33N 48°37' W 005°18'1616.1
2014-Jul-26 06:33N 48°47' W 004°59'1515.4
2014-Jul-26 05:33N 48°57' W 004°42'814.6
2014-Jul-26 05:00N 49°00' W 004°30'818.4 290 / 71018.2 5.4 18.717.618.0
2014-Jul-26 04:33N 49°07' W 004°25'15415.5
2014-Jul-25 18:33N 50°32' W 001°05'1211.6
2014-Jul-25 17:33N 50°43' W 001°01'1313.2
2014-Jul-25 16:33N 50°50' W 001°19'6 5.5
2014-Jul-25 15:31N 50°54' W 001°26'0 0.0
2014-Jul-25 14:31N 50°54' W 001°26'0 0.0
2014-Jul-25 13:31N 50°54' W 001°26'0 0.0
2014-Jul-25 12:31N 50°54' W 001°26'0 0.0
2014-Jul-25 11:25N 50°54' W 001°26'0 0.0
2014-Jul-25 10:31N 50°54' W 001°26'0 0.0
2014-Jul-25 09:31N 50°54' W 001°26'0 0.0
2014-Jul-25 08:31N 50°54' W 001°26'0 0.0
2014-Jul-25 07:31N 50°54' W 001°26'0 0.0
2014-Jul-25 06:31N 50°54' W 001°26'0 0.3
2014-Jul-25 05:33N 50°54' W 001°26'8 7.6
2014-Jul-25 04:33N 50°49' W 001°18'1211.8
2014-Jul-25 03:33N 50°43' W 001°01'1212.0
2014-Jul-25 02:33N 50°37' W 000°45'1615.7
2014-Jul-25 01:33N 50°34' W 000°21'3615.7
2014-Jul-24 23:16N 50°38' E 000°35'2715.3
2014-Jul-24 21:31N 50°52' E 001°11'1414.6
2014-Jul-24 20:33N 51°02' E 001°27'1515.0
2014-Jul-24 19:33N 51°13' E 001°43'1615.7
2014-Jul-24 18:33N 51°27' E 001°55'1716.9
2014-Jul-24 17:33N 51°39' E 002°13'1717.1
2014-Jul-24 16:33N 51°52' E 002°31'1616.2
2014-Jul-24 15:33N 52°08' E 002°37'1212.4
2014-Jul-24 14:33N 52°21' E 002°38'1514.7
2014-Jul-24 13:34N 52°35' E 002°38'1514.5
2014-Jul-24 12:33N 52°50' E 002°38'1414.3
2014-Jul-24 11:34N 53°04' E 002°38'1313.0
2014-Jul-24 10:33N 53°16' E 002°45'1210.9
2014-Jul-24 09:29N 53°27' E 002°51'1111.0
2014-Jul-24 08:31N 53°37' E 002°58'1110.8
2014-Jul-24 07:32N 53°47' E 003°05'1110.7
2014-Jul-24 06:29N 53°57' E 003°11'1110.8
2014-Jul-24 05:28N 54°08' E 003°14'4410.6
2014-Jul-24 01:19N 54°52' E 003°19'4210.8
2014-Jul-23 21:25N 55°34' E 003°27'4410.7
2014-Jul-23 17:19N 56°18' E 003°33'1010.5
2014-Jul-23 16:25N 56°27' E 003°35'1310.5
2014-Jul-23 15:11N 56°40' E 003°37'810.3
2014-Jul-23 14:24N 56°48' E 003°39'7611.1
2014-Jul-23 07:31N 58°04' E 003°50'5011.5
2014-Jul-23 03:07N 58°54' E 004°00'711.3
2014-Jul-23 02:32N 59°01' E 004°01'1111.4
2014-Jul-23 01:33N 59°12' E 004°04'1311.6
2014-Jul-23 00:26N 59°25' E 004°08'71 8.7
2014-Jul-22 16:22N 60°31' E 004°58'718.2
2014-Jul-22 16:00N 60°24' E 005°00'713.5 330 / 131030.110.8 21.514.817.0
2014-Jul-22 15:30N 60°24' E 005°13'3 0.8
2014-Jul-22 12:10N 60°24' E 005°19'0 0.0
2014-Jul-22 08:28N 60°24' E 005°19'0 0.0
2014-Jul-22 06:16N 60°24' E 005°19'1 0.7
2014-Jul-22 05:29N 60°24' E 005°18'13 8.7
2014-Jul-22 04:00N 60°30' E 004°54'122 3.5 150 / 61027.410.8 17.714.817.0
2014-Jul-20 17:00N 62°30' E 005°36'20 1.4 010 / 131021.010.8 0.519.413.916.0
2014-Jul-20 03:00N 62°48' E 005°54'27310.3 090 / 131022.410.8 0.516.012.415.2
2014-Jul-19 00:31N 66°42' E 011°25'  
Track history (hours):
 
Tides and Currents Weather Stations Pressure Air Temp Water Temp Dewpoint Dewpoint Depression Visibility Wind Speed Wind Dir Waves Ship Positions

Oriana (Bermuda)

Last reported at 2014-Jul-28 23:33 UTC. Time now 2014-Jul-29 00:31 UTC.
Position N 38°07' W 013°07'.

Length 261 m; beam 32.2 m; draft 8.2 m.

Type: Ship. MMSI: 310529000.

Date/timePositionNaut miles runAvg speedWind from/ knotsBaromVisibWave heightAir tempDewpointWater temp
2014-Jul-28 23:33N 38°07' W 013°07'1312.5
2014-Jul-28 22:31N 38°18' W 012°60'1212.4
2014-Jul-28 21:31N 38°30' W 012°53'1312.5
2014-Jul-28 20:30N 38°41' W 012°46'1212.3
2014-Jul-28 19:33N 38°52' W 012°39'376 9.1
2014-Jul-27 02:14N 44°08' W 008°07'1015.2
2014-Jul-27 01:34N 44°17' W 008°01'1615.3
2014-Jul-27 00:31N 44°32' W 007°54'1515.3
2014-Jul-26 23:32N 44°46' W 007°46'1515.8
2014-Jul-26 22:33N 44°60' W 007°36'1615.8
2014-Jul-26 21:34N 45°14' W 007°28'1616.4
2014-Jul-26 20:34N 45°29' W 007°19'1616.1
2014-Jul-26 19:33N 45°44' W 007°10'3415.8
2014-Jul-26 17:25N 46°16' W 006°51'1315.5
2014-Jul-26 16:33N 46°28' W 006°44'1815.3
2014-Jul-26 15:24N 46°44' W 006°34'3415.3
2014-Jul-26 13:10N 47°16' W 006°14'915.3
2014-Jul-26 12:34N 47°24' W 006°09'1515.1
2014-Jul-26 11:33N 47°38' W 006°00'1515.4
2014-Jul-26 10:33N 47°52' W 005°51'1616.2
2014-Jul-26 09:33N 48°07' W 005°41'1716.8
2014-Jul-26 08:33N 48°23' W 005°32'1716.8
2014-Jul-26 07:33N 48°37' W 005°18'1616.1
2014-Jul-26 06:33N 48°47' W 004°59'1515.4
2014-Jul-26 05:33N 48°57' W 004°42'814.6
2014-Jul-26 05:00N 49°00' W 004°30'818.4 290 / 71018.2 5.4 18.717.618.0
2014-Jul-26 04:33N 49°07' W 004°25'15415.5
2014-Jul-25 18:33N 50°32' W 001°05'1211.6
2014-Jul-25 17:33N 50°43' W 001°01'1313.2
2014-Jul-25 16:33N 50°50' W 001°19'6 5.5
2014-Jul-25 15:31N 50°54' W 001°26'0 0.0
2014-Jul-25 14:31N 50°54' W 001°26'0 0.0
2014-Jul-25 13:31N 50°54' W 001°26'0 0.0
2014-Jul-25 12:31N 50°54' W 001°26'0 0.0
2014-Jul-25 11:25N 50°54' W 001°26'0 0.0
2014-Jul-25 10:31N 50°54' W 001°26'0 0.0
2014-Jul-25 09:31N 50°54' W 001°26'0 0.0
2014-Jul-25 08:31N 50°54' W 001°26'0 0.0
2014-Jul-25 07:31N 50°54' W 001°26'0 0.0
2014-Jul-25 06:31N 50°54' W 001°26'0 0.3
2014-Jul-25 05:33N 50°54' W 001°26'8 7.6
2014-Jul-25 04:33N 50°49' W 001°18'1211.8
2014-Jul-25 03:33N 50°43' W 001°01'1212.0
2014-Jul-25 02:33N 50°37' W 000°45'1615.7
2014-Jul-25 01:33N 50°34' W 000°21'3615.7
2014-Jul-24 23:16N 50°38' E 000°35'2715.3
2014-Jul-24 21:31N 50°52' E 001°11'1414.6
2014-Jul-24 20:33N 51°02' E 001°27'1515.0
2014-Jul-24 19:33N 51°13' E 001°43'1615.7
2014-Jul-24 18:33N 51°27' E 001°55'1716.9
2014-Jul-24 17:33N 51°39' E 002°13'1717.1
2014-Jul-24 16:33N 51°52' E 002°31'1616.2
2014-Jul-24 15:33N 52°08' E 002°37'1212.4
2014-Jul-24 14:33N 52°21' E 002°38'1514.7
2014-Jul-24 13:34N 52°35' E 002°38'1514.5
2014-Jul-24 12:33N 52°50' E 002°38'1414.3
2014-Jul-24 11:34N 53°04' E 002°38'1313.0
2014-Jul-24 10:33N 53°16' E 002°45'1210.9
2014-Jul-24 09:29N 53°27' E 002°51'1111.0
2014-Jul-24 08:31N 53°37' E 002°58'1110.8
2014-Jul-24 07:32N 53°47' E 003°05'1110.7
2014-Jul-24 06:29N 53°57' E 003°11'1110.8
2014-Jul-24 05:28N 54°08' E 003°14'4410.6
2014-Jul-24 01:19N 54°52' E 003°19'4210.8
2014-Jul-23 21:25N 55°34' E 003°27'4410.7
2014-Jul-23 17:19N 56°18' E 003°33'1010.5
2014-Jul-23 16:25N 56°27' E 003°35'1310.5
2014-Jul-23 15:11N 56°40' E 003°37'810.3
2014-Jul-23 14:24N 56°48' E 003°39'7611.1
2014-Jul-23 07:31N 58°04' E 003°50'5011.5
2014-Jul-23 03:07N 58°54' E 004°00'711.3
2014-Jul-23 02:32N 59°01' E 004°01'1111.4
2014-Jul-23 01:33N 59°12' E 004°04'1311.6
2014-Jul-23 00:26N 59°25' E 004°08'71 8.7
2014-Jul-22 16:22N 60°31' E 004°58'718.2
2014-Jul-22 16:00N 60°24' E 005°00'713.5 330 / 131030.110.8 21.514.817.0
2014-Jul-22 15:30N 60°24' E 005°13'3 0.8
2014-Jul-22 12:10N 60°24' E 005°19'0 0.0
2014-Jul-22 08:28N 60°24' E 005°19'0 0.0
2014-Jul-22 06:16N 60°24' E 005°19'1 0.7
2014-Jul-22 05:29N 60°24' E 005°18'13 8.7
2014-Jul-22 04:00N 60°30' E 004°54'122 3.5 150 / 61027.410.8 17.714.817.0
2014-Jul-20 17:00N 62°30' E 005°36'20 1.4 010 / 131021.010.8 0.519.413.916.0
2014-Jul-20 03:00N 62°48' E 005°54'27310.3 090 / 131022.410.8 0.516.012.415.2
2014-Jul-19 00:31N 66°42' E 011°25'  

Dump ship's entire track history